Change the Weather History Date:

Saturday, January 5, 2013

  Actual Average Record
Temperature  
Mean Temperature 42 °F -  
Max Temperature 46 °F - - ()
Min Temperature 37 °F - - ()
Degree Days  
Heating Degree Days 24    
Moisture  
Dew Point 39 °F    
Average Humidity 90    
Maximum Humidity 100    
Minimum Humidity 81    
Precipitation  
Precipitation 0.00 in - - ()
Sea Level Pressure  
Sea Level Pressure 30.13 in    
Wind  
Wind Speed 14 mph ()    
Max Wind Speed 20 mph    
Max Gust Speed 32 mph    
Visibility 6.1 miles    
Events Rain    
T = Trace of Precipitation, MM = Missing Value Source: Averaged Metar Reports

Daily Weather History Graph

Daily Weather History Graph

Search for Another Location

Airport or City:

Trip Planner

Search our weather history database for the weather conditions in past years. The results will help you decide how hot, cold, wet, or windy it might be!

Date:

Astronomy

Jan. 05, 2013 Rise Set
Actual Time 7:49 AM CET 4:12 PM CET
Civil Twilight 7:12 AM CET 4:49 PM CET
Nautical Twilight 6:32 AM CET 5:29 PM CET
Astronomical Twilight 5:53 AM CET 6:08 PM CET
Moon 12:15 AM CET (1/5) 11:10 AM CET (1/5)
Length of Visible Light 9h 36m
Length of Day
8h 22m
Waning Gibbous, 47% of the Moon is Illuminated
Jan 5
Waning Gibbous
Jan 11
New
Jan 19
First Quarter
Jan 27
Full
Feb 3
Last Quarter

Hourly Weather History & Observations

Time (CET) Temp. Windchill Dew Point Humidity Pressure Visibility Wind Dir Wind Speed Gust Speed Precip Events Conditions
12:00 AM 46.4 °F 39.2 °F 44.6 °F 93% 30.06 in 6.2 mi NW 18.4 mph 28.8 mph N/A Rain Light Rain
1:00 AM 44.6 °F 36.9 °F 44.6 °F 100% 30.06 in 5.0 mi NW 18.4 mph - N/A Rain Light Rain
2:00 AM 44.6 °F 36.9 °F 42.8 °F 93% 30.06 in 6.2 mi NW 18.4 mph 29.9 mph N/A Rain Light Rain
3:00 AM 44.6 °F 37.2 °F 42.8 °F 93% 30.06 in 6.2 mi NW 17.3 mph - N/A Rain Light Rain
4:00 AM 44.6 °F 36.6 °F 41.0 °F 87% 30.06 in 6.2 mi NW 19.6 mph 32.2 mph N/A   Mostly Cloudy
5:00 AM 44.6 °F 38.1 °F 42.8 °F 93% 30.06 in 6.2 mi NW 13.8 mph - N/A   Mostly Cloudy
6:00 AM 42.8 °F 36.6 °F 39.2 °F 87% 30.06 in 6.2 mi NNW 11.5 mph - N/A   Partly Cloudy
7:00 AM 42.8 °F 35.4 °F 39.2 °F 87% 30.09 in 6.2 mi NW 15.0 mph - N/A   Partly Cloudy
8:00 AM 41.0 °F 33.5 °F 37.4 °F 87% 30.09 in 6.2 mi NW 13.8 mph - N/A   Mostly Cloudy
9:00 AM 42.8 °F 34.8 °F 39.2 °F 87% 30.09 in 6.2 mi NW 17.3 mph - N/A   Mostly Cloudy
10:00 AM 42.8 °F 35.4 °F 39.2 °F 87% 30.12 in 6.2 mi NW 15.0 mph - N/A   Mostly Cloudy
11:00 AM 42.8 °F 35.8 °F 39.2 °F 87% 30.12 in 6.2 mi NNW 13.8 mph 25.3 mph N/A   Mostly Cloudy
12:00 PM 42.8 °F 35.4 °F 39.2 °F 87% 30.12 in 6.2 mi NNW 15.0 mph - N/A   Mostly Cloudy
1:00 PM 42.8 °F 35.4 °F 39.2 °F 87% 30.12 in 6.2 mi NNW 15.0 mph - N/A   Mostly Cloudy
2:00 PM 42.8 °F 35.4 °F 39.2 °F 87% 30.15 in 6.2 mi NNW 15.0 mph - N/A   Mostly Cloudy
3:00 PM 42.8 °F 35.4 °F 37.4 °F 81% 30.15 in 6.2 mi NW 15.0 mph - N/A   Mostly Cloudy
4:00 PM 41.0 °F 34.7 °F 39.2 °F 93% 30.18 in 6.2 mi North 10.4 mph - N/A Rain Light Rain
5:00 PM 39.2 °F 33.0 °F 37.4 °F 93% 30.21 in 6.2 mi NNW 9.2 mph - N/A Rain Light Rain
6:00 PM 37.4 °F 30.8 °F 37.4 °F 100% 30.21 in 6.2 mi NW 9.2 mph - N/A   Partly Cloudy
8:00 PM 37.4 °F 30.8 °F 35.6 °F 93% 30.24 in 6.2 mi NW 9.2 mph - N/A   Scattered Clouds
9:00 PM 37.4 °F 28.9 °F 33.8 °F 87% 30.27 in 6.2 mi NNW 13.8 mph - N/A   Partly Cloudy
10:00 PM 37.4 °F 29.8 °F 33.8 °F 87% 30.27 in 6.2 mi NNW 11.5 mph - N/A   Partly Cloudy